Regional Weather Roundup
Issued by NWS

Home | Current Version | Previous Version | Graphics & Text | Print | Product List | Glossary On
Versions: 1 2 3 4 5 6 7 8 9 10 11 12 13 14 15 16 17 18 19 20 21 22 23 24 25 26 27 28 29 30 31 32 33 34 35 36 37 38 39 40 41 42 43 44 45 46 47 48 49 50
000
ASUS44 KMEG 242310
RWRTN
TENNESSEE HOURLY STATE WEATHER ROUNDUP
NATIONAL WEATHER SERVICE MEMPHIS TN
600 PM CDT MON JUL 24 2017

TNZ002-004-019-021-049-052-054-088>092-250000-
WEST TENNESSEE

CITY           SKY/WX    TMP DP  RH WIND       PRES   REMARKS
MEMPHIS INTL   FAIR      91  74  57 W5        29.93S HX 100
NWS MEMPHIS      N/A     92 N/A N/A MISG        N/A
JACKSON        FAIR      89  76  65 VRB5      29.94S HX 100
SOMERVILLE       N/A     90  75  62 SW5       29.93R HX 100
COVINGTON      SUNNY     88  77  70 NW5       29.93S HX 100
UNION CITY     SUNNY     88  75  66 CALM      29.91F HX  97
BOLIVAR        PTSUNNY   90  73  58 CALM      29.93R HX  98
PARIS          MOSUNNY   88  75  66 SW5       29.93S HX  97
HUNTINGDON     MOSUNNY   88  75  66 CALM      29.93S HX  97
LEXINGTON      MOSUNNY   86  77  74 NW5       29.94S HX  97
SELMER         SUNNY     90  72  55 CALM      29.94S HX  96
SAVANNAH       PTSUNNY   90  77  66 NW6       29.93R HX 102
$$

TNZ008-025-027-028-033-062-065-066-250000-
NORTH MIDDLE TENNESSEE

CITY           SKY/WX    TMP DP  RH WIND       PRES   REMARKS
NASHVILLE      CLOUDY    90  72  55 E5        29.95R HX  97
PORTLAND       SUNNY     86  73  66 CALM      29.96R HX  93
CLARKSVILLE    FAIR      88  73  61 SW7       29.94R HX  95
SMYRNA         FAIR      91  73  55 SE6       29.95S HX  99
COOKEVILLE     SUNNY     88  70  55 CALM      29.98S HX  92
GALLATIN       CLOUDY    88  73  62 E3        29.97R HX  96
CROSSVILLE     FAIR      84  64  50 W3        30.05R
$$

TNZ061-075-076-078-094-096-097-250000-
SOUTH MIDDLE TENNESSEE

CITY           SKY/WX    TMP DP  RH WIND       PRES   REMARKS
FAYETTEVILLE   PTSUNNY   86  75  70 VRB7      29.97S HX  95
TULLAHOMA        N/A     84  66  54 NE3       30.00R
WINCHESTER     SUNNY     88  72  58 CALM      29.98R HX  94
MCMINNVILLE    SUNNY     90  72  55 CALM      29.99R HX  96
COLUMBIA       SUNNY     90  75  62 SE5       29.93S HX 100
SHELBYVILLE    PTSUNNY   88  73  62 E5        29.96S HX  96
$$

TNZ017-018-042-046-047-250000-
NORTHEAST TENNESSEE

CITY           SKY/WX    TMP DP  RH WIND       PRES   REMARKS
TRI CITIES     FAIR      87  65  47 W7        29.99R
ELIZABETHTON   FAIR      86  63  45 NW6       29.99S
$$

TNZ012-013-036-069-073-074-250000-
CENTRAL EAST TENNESSEE

CITY           SKY/WX    TMP DP  RH WIND       PRES   REMARKS
KNOXVILLE      PTSUNNY   88  63  43 W5        29.97R
OAK RIDGE      FAIR      90  66  45 W5        29.99R HX  92
DOWNTOWN KNOXV MOSUNNY   86  73  66 CALM      29.96R HX  93
GATLINBURG     SUNNY     88  66  48 NW6       29.97S HX  90
MORRISTOWN     SUNNY     86  68  54 NW6       29.99R
JACKSBORO      SUNNY     84  70  61 CALM      30.02R
$$

TNZ083-085-099-250000-
SOUTHEAST TENNESSEE

CITY           SKY/WX    TMP DP  RH WIND       PRES   REMARKS
CHATTANOOGA    PTSUNNY   90  68  48 CALM      29.96R HX  94
DAYTON         CLEAR     88  70  55 CALM      29.96R HX  92
$$

SKY/WX REPORTED AS FAIR MEANS FEW OR NO CLOUDS BELOW
12 THOUSAND FEET.




USA.gov is the U.S. government's official web portal to all federal, state and local government web resources and services.